TIANWANG 1C (TW-1C) (40926 NORAD) Tracking and Keplerian Element Data

This shows tracking and keplerian element data for the satellite.

Feedback or suggestion? Click here.




ElementValue
Catalog40926
NameTIANWANG 1C (TW-1C)
Epoch Orbit30713
Epoch Day57.93770894
Epoch Year2021
RAAN120.9742
Inclination97.0197
Eccentricity0.000661
Argument of Perigee258.8279
Mean Anonmoly223.7215
Mean Motion16.31196197
Decay Rate0.05243455
L11 40926U 15051B 21057.93770894 .05243455 22735-5 10757-2 0 9999
L22 40926 97.0197 120.9742 0006610 258.8279 223.7215 16.31196197307135



Live tracking and technical data element details for TIANWANG 1C (TW-1C) (NORAD 40926). TIANWANG 1C (TW-1C) can be tracked NOW for your location showing map with azimuth and elevation plus other details from your city location.







IsCatalogInMostPopularTable: catalog: 40926, numindb: 597
Update: records affected: 1



GetName: 40926 TIANWANG 1C (TW-1C)

Hit Count: updated at: Tue, 03 Dec 2024 02:04:38 GMT